Hourly Weather Gabrovo

Today, 3 July, Friday

Time Temperature Precipitation Wind Pressure Humidity
00:00 +19°C° 0 mm 2 mps 699 mmHg 81%
01:00 +20°C° 0 mm 1 mps 699 mmHg 80%
02:00 +19°C° 0 mm 1 mps 699 mmHg 76%
03:00 +19°C° 0 mm 1 mps 699 mmHg 76%
04:00 +18°C° 0 mm 1 mps 698 mmHg 77%
05:00 +16°C° 0 mm 0 mps 698 mmHg 77%
06:00 +18°C° 0 mm 0 mps 699 mmHg 73%
07:00 +20°C° 0 mm 0 mps 699 mmHg 68%
08:00 +22°C° 0 mm 0 mps 700 mmHg 63%
09:00 +23°C° 0 mm 0 mps 700 mmHg 60%
10:00 +25°C° 0 mm 0 mps 700 mmHg 57%
11:00 +28°C° 0 mm 1 mps 700 mmHg 54%
12:00 +29°C° 0.4 mm 1 mps 700 mmHg 53%
13:00 +29°C° 0.4 mm 1 mps 700 mmHg 53%
14:00 +29°C° 0 mm 1 mps 700 mmHg 51%
15:00 +29°C° 0.4 mm 1 mps 700 mmHg 52%
16:00 +29°C° 0.4 mm 1 mps 699 mmHg 54%
17:00 +29°C° 0.4 mm 2 mps 699 mmHg 55%
18:00 +27°C° 0.1 mm 1 mps 699 mmHg 61%
19:00 +25°C° 0.1 mm 1 mps 699 mmHg 67%
20:00 +23°C° 0.1 mm 1 mps 699 mmHg 73%
21:00 +23°C° 0.1 mm 1 mps 699 mmHg 74%
22:00 +22°C° 0.1 mm 1 mps 699 mmHg 75%
23:00 +21°C° 0.1 mm 1 mps 700 mmHg 77%

Tomorrow, 4 July, Saturday

Time Temperature Precipitation Wind Pressure Humidity
00:00 +21°C° 0 mm 1 mps 700 mmHg 78%
01:00 +20°C° 0 mm 1 mps 700 mmHg 79%
02:00 +20°C° 0 mm 1 mps 700 mmHg 80%
03:00 +20°C° 0 mm 1 mps 700 mmHg 82%
04:00 +19°C° 0 mm 1 mps 700 mmHg 84%
05:00 +19°C° 0 mm 1 mps 700 mmHg 85%
06:00 +21°C° 0 mm 1 mps 700 mmHg 80%
07:00 +23°C° 0 mm 1 mps 701 mmHg 75%
08:00 +24°C° 0 mm 1 mps 701 mmHg 69%
09:00 +26°C° 0.1 mm 1 mps 702 mmHg 64%
10:00 +27°C° 0.1 mm 1 mps 702 mmHg 59%
11:00 +29°C° 0.1 mm 1 mps 702 mmHg 54%
12:00 +29°C° 0.7 mm 1 mps 702 mmHg 54%
13:00 +29°C° 0.7 mm 2 mps 701 mmHg 55%
14:00 +29°C° 0.7 mm 2 mps 701 mmHg 55%
15:00 +28°C° 0.9 mm 2 mps 701 mmHg 58%
16:00 +28°C° 0.9 mm 3 mps 701 mmHg 60%
17:00 +28°C° 0.9 mm 3 mps 700 mmHg 63%
18:00 +26°C° 0.3 mm 3 mps 700 mmHg 68%
19:00 +24°C° 0.3 mm 2 mps 700 mmHg 72%
20:00 +21°C° 0.3 mm 2 mps 700 mmHg 77%
21:00 +21°C° 0.3 mm 2 mps 700 mmHg 78%
22:00 +21°C° 0.3 mm 1 mps 700 mmHg 80%
23:00 +21°C° 0.3 mm 1 mps 700 mmHg 81%

Day after tomorrow, 5 July, Sunday

Time Temperature Precipitation Wind Pressure Humidity
00:00 +20°C° 0.2 mm 1 mps 700 mmHg 83%
01:00 +20°C° 0.2 mm 1 mps 700 mmHg 85%
02:00 +20°C° 0.2 mm 1 mps 700 mmHg 86%
03:00 +19°C° 0.2 mm 1 mps 700 mmHg 87%
04:00 +19°C° 0.2 mm 1 mps 700 mmHg 87%
05:00 +19°C° 0.2 mm 1 mps 699 mmHg 88%
06:00 +19°C° 0.3 mm 2 mps 700 mmHg 85%
07:00 +21°C° 0.3 mm 2 mps 700 mmHg 81%
08:00 +23°C° 0.3 mm 2 mps 700 mmHg 77%
09:00 +24°C° 0.9 mm 2 mps 700 mmHg 73%
10:00 +25°C° 0.9 mm 2 mps 701 mmHg 68%
11:00 +27°C° 0.9 mm 2 mps 701 mmHg 64%
12:00 +27°C° 0.8 mm 2 mps 701 mmHg 63%
13:00 +27°C° 0.8 mm 3 mps 700 mmHg 62%
14:00 +27°C° 0.8 mm 3 mps 700 mmHg 62%
15:00 +27°C° 0.5 mm 3 mps 700 mmHg 62%
16:00 +27°C° 0.5 mm 3 mps 700 mmHg 62%
17:00 +27°C° 0.5 mm 3 mps 699 mmHg 63%
18:00 +25°C° 0.5 mm 2 mps 699 mmHg 68%
19:00 +24°C° 0.5 mm 2 mps 699 mmHg 74%
20:00 +21°C° 0.5 mm 2 mps 699 mmHg 79%
21:00 +20°C° 0.2 mm 2 mps 699 mmHg 80%
22:00 +20°C° 0.2 mm 2 mps 699 mmHg 81%
23:00 +20°C° 0.2 mm 1 mps 699 mmHg 82%

6 July, Monday

Time Temperature Precipitation Wind Pressure Humidity
00:00 +19°C° 0 mm 2 mps 699 mmHg 83%
01:00 +19°C° 0 mm 2 mps 699 mmHg 83%
02:00 +19°C° 0 mm 2 mps 699 mmHg 84%
03:00 +18°C° 0 mm 2 mps 699 mmHg 84%
04:00 +18°C° 0 mm 2 mps 698 mmHg 85%
05:00 +18°C° 0 mm 2 mps 698 mmHg 85%
06:00 +20°C° 0 mm 2 mps 698 mmHg 81%
07:00 +22°C° 0 mm 1 mps 699 mmHg 76%
08:00 +24°C° 0 mm 1 mps 699 mmHg 72%
09:00 +26°C° 0.1 mm 2 mps 699 mmHg 67%
10:00 +27°C° 0.1 mm 2 mps 699 mmHg 61%
11:00 +28°C° 0.1 mm 2 mps 699 mmHg 55%
12:00 +29°C° 0.1 mm 2 mps 699 mmHg 54%
13:00 +29°C° 0.1 mm 3 mps 699 mmHg 52%
14:00 +30°C° 0.1 mm 3 mps 698 mmHg 50%
15:00 +29°C° 0.1 mm 3 mps 698 mmHg 52%
16:00 +29°C° 0.1 mm 3 mps 698 mmHg 54%
17:00 +28°C° 0.1 mm 3 mps 697 mmHg 56%
18:00 +27°C° 0 mm 3 mps 697 mmHg 63%
19:00 +25°C° 0 mm 3 mps 697 mmHg 69%
20:00 +23°C° 0 mm 2 mps 697 mmHg 76%
21:00 +21°C° 0 mm 2 mps 697 mmHg 77%
22:00 +21°C° 0 mm 2 mps 697 mmHg 77%
23:00 +21°C° 0 mm 1 mps 697 mmHg 78%

7 July, Tuesday

Time Temperature Precipitation Wind Pressure Humidity
00:00 +21°C° 0 mm 1 mps 697 mmHg 78%
01:00 +21°C° 0 mm 1 mps 697 mmHg 78%
02:00 +20°C° 0 mm 1 mps 697 mmHg 78%
03:00 +20°C° 0 mm 1 mps 696 mmHg 80%
04:00 +20°C° 0 mm 1 mps 696 mmHg 81%
05:00 +20°C° 0 mm 1 mps 696 mmHg 83%
06:00 +21°C° 0 mm 1 mps 697 mmHg 77%
07:00 +23°C° 0 mm 1 mps 697 mmHg 72%
08:00 +25°C° 0 mm 1 mps 698 mmHg 67%
09:00 +27°C° 0 mm 1 mps 698 mmHg 61%
10:00 +28°C° 0 mm 1 mps 698 mmHg 54%
11:00 +29°C° 0 mm 1 mps 698 mmHg 48%
12:00 +30°C° 0.1 mm 2 mps 698 mmHg 48%
13:00 +30°C° 0.1 mm 2 mps 698 mmHg 48%
14:00 +30°C° 0.1 mm 3 mps 698 mmHg 47%
15:00 +29°C° 0.3 mm 3 mps 698 mmHg 51%
16:00 +29°C° 0.3 mm 3 mps 698 mmHg 54%
17:00 +28°C° 0.3 mm 3 mps 698 mmHg 58%
18:00 +26°C° 0.2 mm 3 mps 698 mmHg 64%
19:00 +25°C° 0.2 mm 3 mps 698 mmHg 70%
20:00 +22°C° 0.2 mm 3 mps 698 mmHg 76%
21:00 +21°C° 0.6 mm 3 mps 699 mmHg 79%
22:00 +20°C° 0.6 mm 3 mps 699 mmHg 83%
23:00 +19°C° 0.6 mm 3 mps 700 mmHg 87%

8 July, Wednesday

Time Temperature Precipitation Wind Pressure Humidity
00:00 +19°C° 0.2 mm 3 mps 700 mmHg 88%
01:00 +18°C° 0.2 mm 2 mps 700 mmHg 89%
02:00 +18°C° 0.2 mm 2 mps 700 mmHg 91%
03:00 +17°C° 0 mm 2 mps 700 mmHg 91%
04:00 +17°C° 0 mm 2 mps 700 mmHg 91%
05:00 +17°C° 0 mm 2 mps 700 mmHg 91%
06:00 +18°C° 0 mm 2 mps 700 mmHg 87%
07:00 +18°C° 0 mm 2 mps 701 mmHg 82%
08:00 +19°C° 0 mm 2 mps 701 mmHg 78%
09:00 +21°C° 0 mm 2 mps 702 mmHg 73%
10:00 +23°C° 0 mm 2 mps 702 mmHg 67%
11:00 +25°C° 0 mm 2 mps 703 mmHg 62%
12:00 +25°C° 0 mm 2 mps 703 mmHg 62%
13:00 +25°C° 0 mm 3 mps 703 mmHg 62%
14:00 +25°C° 0 mm 3 mps 703 mmHg 62%
15:00 +25°C° 0.1 mm 3 mps 703 mmHg 63%
16:00 +25°C° 0.1 mm 3 mps 703 mmHg 64%
17:00 +25°C° 0.1 mm 3 mps 702 mmHg 65%
18:00 +23°C° 0 mm 2 mps 702 mmHg 72%
19:00 +21°C° 0 mm 2 mps 702 mmHg 78%
20:00 +19°C° 0 mm 2 mps 702 mmHg 84%
21:00 +19°C° 0 mm 2 mps 703 mmHg 84%
22:00 +18°C° 0 mm 2 mps 703 mmHg 85%
23:00 +19°C° 0 mm 1 mps 704 mmHg 85%
Show more